CFG47T EDDN-EDDB

Flight info

Callsign CFG47T
Flight time N/A
Altitude 31000
Route ERETO1C ERETO DCT TABAT T202 MILGU/N0442F270 T202 ATGUP ATGUP1R
Aircraft A320/M-SDE3FGHIRWY/LB1

Departure

Time 2026-04-29 16:09
Airport Nuremberg Airport (EDDN)

Arrival

Time N/A
Airport Berlin Brandenburg Airport (EDDB)
Time Latitude Longitude Altitude Speed Heading
2026-04-29 15:54 49.49525 11.07659 1026 ft 0 kts 188°
2026-04-29 16:00 49.49524 11.07659 1026 ft 0 kts 188°
2026-04-29 16:01 49.49533 11.07661 1024 ft 3 kts 188°
2026-04-29 16:01 49.49550 11.07665 1026 ft 2 kts 188°
2026-04-29 16:01 49.49567 11.07668 1026 ft 2 kts 174°
2026-04-29 16:01 49.49584 11.07662 1025 ft 3 kts 143°
2026-04-29 16:02 49.49597 11.07644 1026 ft 3 kts 116°
2026-04-29 16:02 49.49600 11.07635 1026 ft 0 kts 105°
2026-04-29 16:04 49.49598 11.07646 1026 ft 8 kts 103°
2026-04-29 16:04 49.49609 11.07751 1025 ft 10 kts 43°
2026-04-29 16:04 49.49677 11.07741 1025 ft 12 kts 310°
2026-04-29 16:05 49.49696 11.07623 1025 ft 12 kts 279°
2026-04-29 16:05 49.49707 11.07502 1024 ft 11 kts 278°
2026-04-29 16:05 49.49718 11.07384 1023 ft 11 kts 278°
2026-04-29 16:05 49.49730 11.07240 1022 ft 17 kts 278°
2026-04-29 16:06 49.49749 11.07066 1021 ft 16 kts 279°
2026-04-29 16:06 49.49766 11.06902 1020 ft 15 kts 278°
2026-04-29 16:06 49.49782 11.06743 1020 ft 14 kts 278°
2026-04-29 16:06 49.49796 11.06601 1020 ft 12 kts 278°
2026-04-29 16:07 49.49809 11.06474 1020 ft 12 kts 278°
2026-04-29 16:07 49.49821 11.06349 1018 ft 12 kts 278°
2026-04-29 16:07 49.49833 11.06221 1019 ft 14 kts 278°
2026-04-29 16:07 49.49847 11.06083 1020 ft 12 kts 278°
2026-04-29 16:08 49.49877 11.05988 1022 ft 9 kts 320°
2026-04-29 16:08 49.49918 11.05959 1023 ft 6 kts 338°
2026-04-29 16:08 49.49991 11.05931 1027 ft 12 kts
2026-04-29 16:08 49.50043 11.06005 1027 ft 11 kts 75°
2026-04-29 16:09 49.50034 11.06141 1026 ft 16 kts 97°
2026-04-29 16:09 49.49994 11.06583 1024 ft 84 kts 98°
2026-04-29 16:09 49.49874 11.07905 1034 ft 162 kts 98°
2026-04-29 16:09 49.49666 11.09609 1929 ft 166 kts 98°
2026-04-29 16:10 49.49494 11.11383 3055 ft 170 kts 93°
2026-04-29 16:10 49.49414 11.13121 4073 ft 156 kts 90°
2026-04-29 16:10 49.49425 11.14727 4946 ft 143 kts 85°
2026-04-29 16:10 49.49524 11.16273 5529 ft 158 kts 80°
2026-04-29 16:11 49.49762 11.18215 5946 ft 197 kts 76°
2026-04-29 16:11 49.50094 11.20076 7474 ft 182 kts 71°
2026-04-29 16:11 49.50589 11.22213 7634 ft 243 kts 64°
2026-04-29 16:11 49.51765 11.24497 7643 ft 303 kts 41°
2026-04-29 16:12 49.53598 11.26566 7642 ft 351 kts 34°
2026-04-29 16:12 49.55044 11.27965 7645 ft 375 kts 32°
2026-04-29 16:12 49.58016 11.30767 9074 ft 369 kts 32°
2026-04-29 16:12 49.60243 11.32740 10021 ft 378 kts 24°
2026-04-29 16:13 49.62836 11.33916 10420 ft 392 kts 13°
2026-04-29 16:13 49.65466 11.34854 11730 ft 384 kts 13°
2026-04-29 16:13 49.68117 11.35736 12525 ft 394 kts
2026-04-29 16:13 49.70777 11.36129 13911 ft 380 kts
2026-04-29 16:14 49.73367 11.36322 15222 ft 367 kts
2026-04-29 16:14 49.75916 11.36562 16417 ft 367 kts
2026-04-29 16:14 49.78466 11.36950 17404 ft 370 kts
2026-04-29 16:14 49.81031 11.37494 18325 ft 374 kts
2026-04-29 16:15 49.83580 11.38144 19113 ft 378 kts
2026-04-29 16:15 49.86193 11.38870 19872 ft 381 kts 10°
2026-04-29 16:15 49.88811 11.39616 20578 ft 385 kts 10°
2026-04-29 16:15 49.91453 11.40361 21259 ft 388 kts 10°
2026-04-29 16:16 49.94127 11.41085 21872 ft 390 kts
2026-04-29 16:16 49.96801 11.41690 22436 ft 392 kts
2026-04-29 16:16 49.99536 11.42214 22976 ft 395 kts
2026-04-29 16:16 50.02282 11.42699 23518 ft 398 kts
2026-04-29 16:17 50.05013 11.43177 24027 ft 401 kts
2026-04-29 16:17 50.07796 11.43681 24472 ft 403 kts
2026-04-29 16:17 50.10593 11.44205 24918 ft 405 kts
2026-04-29 16:17 50.13405 11.44746 25353 ft 406 kts
2026-04-29 16:18 50.16196 11.45292 25785 ft 408 kts
2026-04-29 16:18 50.19021 11.45851 26200 ft 410 kts
2026-04-29 16:18 50.21869 11.46418 26611 ft 412 kts
2026-04-29 16:18 50.24724 11.46984 27005 ft 414 kts
2026-04-29 16:19 50.27553 11.47540 27397 ft 415 kts
2026-04-29 16:19 50.30419 11.48101 27767 ft 417 kts
2026-04-29 16:19 50.33311 11.48667 28111 ft 419 kts
2026-04-29 16:19 50.36222 11.49237 28443 ft 421 kts
2026-04-29 16:20 50.39138 11.49810 28772 ft 423 kts
2026-04-29 16:20 50.42039 11.50384 29085 ft 424 kts
2026-04-29 16:20 50.44972 11.50966 29375 ft 426 kts
2026-04-29 16:20 50.47885 11.51545 29769 ft 425 kts
2026-04-29 16:21 50.50818 11.52125 30204 ft 423 kts
2026-04-29 16:21 50.53714 11.52946 30602 ft 420 kts 16°
2026-04-29 16:21 50.56439 11.54473 30923 ft 420 kts 25°
2026-04-29 16:21 50.58995 11.56708 31239 ft 421 kts 33°
2026-04-29 16:22 50.61375 11.59395 31344 ft 420 kts 35°
2026-04-29 16:22 50.66086 11.64799 31367 ft 419 kts 35°
2026-04-29 16:23 50.70812 11.70240 31370 ft 420 kts 35°
2026-04-29 16:23 50.75514 11.75638 31384 ft 420 kts 34°
2026-04-29 16:24 50.80223 11.81058 31378 ft 420 kts 35°
2026-04-29 16:24 50.84946 11.86512 31380 ft 420 kts 35°
2026-04-29 16:25 50.89664 11.91992 31373 ft 420 kts 35°
2026-04-29 16:25 50.94385 11.97480 31377 ft 420 kts 34°
2026-04-29 16:26 50.99074 12.02940 31383 ft 420 kts 34°
2026-04-29 16:26 51.03786 12.08442 31385 ft 420 kts 34°
2026-04-29 16:27 51.08358 12.13798 31384 ft 420 kts 34°
2026-04-29 16:27 51.13075 12.19341 31386 ft 420 kts 34°
2026-04-29 16:28 51.17765 12.24869 31385 ft 421 kts 34°
2026-04-29 16:28 51.22463 12.30406 31387 ft 421 kts 34°
2026-04-29 16:29 51.27186 12.35994 31391 ft 421 kts 34°
2026-04-29 16:29 51.31782 12.41751 31390 ft 424 kts 42°
2026-04-29 16:30 51.35845 12.48638 31393 ft 425 kts 44°
2026-04-29 16:30 51.39875 12.55523 31394 ft 425 kts 44°
2026-04-29 16:31 51.43931 12.62460 31396 ft 425 kts 44°
2026-04-29 16:31 51.47490 12.70004 31398 ft 431 kts 58°
2026-04-29 16:31 51.48790 12.74329 31233 ft 426 kts 61°
2026-04-29 16:32 51.50039 12.78602 30989 ft 413 kts 61°
2026-04-29 16:32 51.51231 12.82669 30750 ft 401 kts 61°
2026-04-29 16:32 51.52404 12.86664 30511 ft 391 kts 60°
2026-04-29 16:32 51.53550 12.90560 30229 ft 381 kts 60°
2026-04-29 16:33 51.55762 12.98098 29412 ft 369 kts 60°
2026-04-29 16:33 51.56873 13.01818 28878 ft 366 kts 57°
2026-04-29 16:33 51.58228 13.05187 28394 ft 360 kts 49°
2026-04-29 16:34 51.59741 13.08385 27911 ft 358 kts 49°
2026-04-29 16:34 51.61243 13.11574 27437 ft 355 kts 49°
2026-04-29 16:34 51.62728 13.14738 26953 ft 354 kts 49°
2026-04-29 16:34 51.64333 13.17767 26086 ft 357 kts 37°
2026-04-29 16:35 51.66460 13.19865 25132 ft 364 kts 18°
2026-04-29 16:35 51.69008 13.20842 24651 ft 390 kts 10°
2026-04-29 16:35 51.71718 13.21689 24465 ft 410 kts 10°
2026-04-29 16:35 51.74578 13.22610 24424 ft 421 kts 11°
2026-04-29 16:36 51.77461 13.23552 24436 ft 424 kts 11°
2026-04-29 16:36 51.80370 13.24503 24437 ft 425 kts 11°
2026-04-29 16:36 51.83245 13.25439 24437 ft 426 kts 11°
2026-04-29 16:36 51.86152 13.26380 24434 ft 426 kts 11°
2026-04-29 16:37 51.89074 13.27329 24438 ft 426 kts 11°
2026-04-29 16:37 51.91920 13.28257 24430 ft 406 kts 11°
2026-04-29 16:37 51.94595 13.29132 24437 ft 386 kts 10°
2026-04-29 16:37 51.96340 13.29702 24439 ft 373 kts 10°
2026-04-29 16:38 51.99603 13.30762 24437 ft 350 kts 10°
2026-04-29 16:38 52.01936 13.31518 24440 ft 335 kts 10°
2026-04-29 16:38 52.04211 13.32257 24445 ft 332 kts 10°
2026-04-29 16:38 52.06473 13.32993 24448 ft 331 kts 10°
2026-04-29 16:39 52.08709 13.33712 24447 ft 330 kts
2026-04-29 16:39 52.10956 13.33665 24445 ft 316 kts 346°
2026-04-29 16:39 52.12859 13.32272 24370 ft 306 kts 325°
2026-04-29 16:39 52.14313 13.29817 24126 ft 304 kts 310°
2026-04-29 16:40 52.15584 13.27073 23718 ft 302 kts 310°
2026-04-29 16:40 52.16822 13.24367 23306 ft 300 kts 309°
2026-04-29 16:40 52.17857 13.21422 22907 ft 302 kts 292°
2026-04-29 16:40 52.18240 13.18038 22523 ft 307 kts 273°
2026-04-29 16:41 52.17885 13.14575 22126 ft 313 kts 254°
2026-04-29 16:41 52.17094 13.11247 21737 ft 313 kts 252°
2026-04-29 16:41 52.16300 13.07989 21402 ft 311 kts 252°
2026-04-29 16:41 52.15495 13.04715 21064 ft 309 kts 252°
2026-04-29 16:42 52.14707 13.01507 20727 ft 307 kts 252°
2026-04-29 16:42 52.13919 12.98288 20460 ft 303 kts 252°
2026-04-29 16:42 52.13143 12.95123 20436 ft 300 kts 252°
2026-04-29 16:42 52.12370 12.91970 20444 ft 299 kts 252°
2026-04-29 16:43 52.11600 12.88809 20441 ft 299 kts 252°
2026-04-29 16:43 52.10839 12.85694 20443 ft 299 kts 252°
2026-04-29 16:43 52.10069 12.82543 20138 ft 300 kts 252°
2026-04-29 16:43 52.09299 12.79398 19784 ft 300 kts 252°
2026-04-29 16:44 52.08527 12.76250 19460 ft 298 kts 252°
2026-04-29 16:44 52.07864 12.73078 19151 ft 292 kts 267°
2026-04-29 16:44 52.08107 12.69936 18872 ft 277 kts 299°
2026-04-29 16:44 52.09287 12.67627 18513 ft 269 kts 329°
2026-04-29 16:45 52.10991 12.66406 18106 ft 269 kts 340°
2026-04-29 16:45 52.12788 12.65444 17614 ft 274 kts 350°
2026-04-29 16:45 52.14707 12.65512 17084 ft 282 kts 13°
2026-04-29 16:45 52.16464 12.66952 16578 ft 292 kts 38°
2026-04-29 16:46 52.17731 12.69607 16036 ft 305 kts 62°
2026-04-29 16:46 52.18540 12.72807 15480 ft 304 kts 65°
2026-04-29 16:46 52.19306 12.75984 14939 ft 299 kts 65°
2026-04-29 16:46 52.20049 12.79085 14419 ft 295 kts 65°
2026-04-29 16:47 52.20792 12.82180 13833 ft 291 kts 65°
2026-04-29 16:47 52.21530 12.85231 13248 ft 287 kts 65°
2026-04-29 16:47 52.22262 12.88238 12677 ft 283 kts 64°
2026-04-29 16:47 52.22984 12.91203 12109 ft 279 kts 65°
2026-04-29 16:48 52.23696 12.94127 11548 ft 275 kts 65°
2026-04-29 16:48 52.24160 12.96043 11186 ft 274 kts 65°
2026-04-29 16:48 52.24894 12.99122 10642 ft 306 kts 66°
2026-04-29 16:48 52.25936 13.03442 9879 ft 309 kts 66°
2026-04-29 16:49 52.26474 13.05658 9480 ft 310 kts 66°
2026-04-29 16:49 52.27260 13.08896 8905 ft 310 kts 66°
2026-04-29 16:49 52.28057 13.12186 8254 ft 312 kts 66°
2026-04-29 16:49 52.28858 13.15502 7487 ft 311 kts 66°
2026-04-29 16:50 52.29641 13.18751 6730 ft 302 kts 67°
2026-04-29 16:50 52.30391 13.21860 5955 ft 294 kts 67°
2026-04-29 16:50 52.31127 13.24920 5368 ft 282 kts 67°
2026-04-29 16:50 52.31821 13.27809 5036 ft 261 kts 67°
2026-04-29 16:51 52.32476 13.30538 4257 ft 261 kts 67°
2026-04-29 16:51 52.33137 13.33293 3477 ft 259 kts 67°
2026-04-29 16:51 52.33799 13.36055 2699 ft 259 kts 67°
2026-04-29 16:51 52.34444 13.38754 2153 ft 250 kts 67°
2026-04-29 16:52 52.35018 13.41160 1494 ft 247 kts 68°
2026-04-29 16:52 52.35612 13.43647 918 ft 237 kts 68°
2026-04-29 16:52 52.36202 13.46122 518 ft 229 kts 68°
2026-04-29 16:52 52.36758 13.48429 255 ft 207 kts 68°
2026-04-29 16:53 52.37223 13.50379 264 ft 163 kts 69°
2026-04-29 16:53 52.37599 13.51998 161 ft 136 kts 70°